| time (UTC) | temp F | wind direction | speed MPH | gust MPH | rain 1hr in | rain 24hr in | rain mn in | humidity % | barometer mb |
| 20260905184104 | 98 | 101 | 4.0 | 9.0 | 0.00 | 0.00 | 0.00 | 31 | 1014.7 |
| 20260905183600 | 98 | 90 | 5.0 | 9.0 | 0.00 | 0.00 | 0.00 | 31 | 1014.7 |
| 20260905183105 | 98 | 192 | 3.0 | 9.0 | 0.00 | 0.00 | 0.00 | 31 | 1014.9 |
| 20260905182559 | 98 | 147 | 4.0 | 9.0 | 0.00 | 0.00 | 0.00 | 32 | 1015.0 |
| 20260905182100 | 98 | 160 | 2.0 | 8.0 | 0.00 | 0.00 | 0.00 | 32 | 1015.0 |
| 20260905181603 | 98 | 122 | 4.0 | 8.0 | 0.00 | 0.00 | 0.00 | 32 | 1015.0 |
| 20260905181101 | 98 | 191 | 2.0 | 8.0 | 0.00 | 0.00 | 0.00 | 32 | 1015.0 |
| 20260905180602 | 97 | 165 | 3.0 | 10.0 | 0.00 | 0.00 | 0.00 | 32 | 1014.9 |
| 20260905180116 | 98 | 139 | 5.0 | 10.0 | 0.00 | 0.00 | 0.00 | 32 | 1015.0 |
| 20260905175600 | 97 | 203 | 2.0 | 7.0 | 0.00 | 0.00 | 0.00 | 34 | 1015.0 |
| 20260905175104 | 97 | 133 | 4.0 | 7.0 | 0.00 | 0.00 | 0.00 | 34 | 1015.0 |
| 20260905174605 | 96 | 158 | 2.0 | 6.0 | 0.00 | 0.00 | 0.00 | 35 | 1015.1 |
| 20260905174100 | 96 | 160 | 4.0 | 6.0 | 0.00 | 0.00 | 0.00 | 35 | 1015.2 |
| 20260905173601 | 96 | 179 | 3.0 | 5.0 | 0.00 | 0.00 | 0.00 | 35 | 1015.0 |
| 20260905173132 | 95 | 126 | 1.0 | 5.0 | 0.00 | 0.00 | 0.00 | 36 | 1015.0 |
| 20260905172600 | 94 | 0 | 1.0 | 5.0 | 0.00 | 0.00 | 0.00 | 35 | 1015.0 |
| 20260905172100 | 94 | 120 | 3.0 | 5.0 | 0.00 | 0.00 | 0.00 | 35 | 1015.0 |
| 20260905171606 | 94 | 118 | 2.0 | 5.0 | 0.00 | 0.00 | 0.00 | 36 | 1014.9 |
| 20260905171059 | 94 | 158 | 3.0 | 5.0 | 0.00 | 0.00 | 0.00 | 37 | 1014.9 |
| 20260905170600 | 94 | 124 | 2.0 | 4.0 | 0.00 | 0.00 | 0.00 | 36 | 1014.9 |
| 20260905170105 | 94 | 103 | 1.0 | 5.0 | 0.00 | 0.00 | 0.00 | 36 | 1015.0 |
| 20260905165600 | 93 | 134 | 1.0 | 5.0 | 0.00 | 0.00 | 0.00 | 37 | 1015.0 |
| 20260905165100 | 93 | 155 | 2.0 | 6.0 | 0.00 | 0.00 | 0.00 | 37 | 1015.0 |
| 20260905164614 | 93 | 135 | 2.0 | 6.0 | 0.00 | 0.00 | 0.00 | 38 | 1015.0 |
| 20260905164104 | 93 | 94 | 3.0 | 6.0 | 0.00 | 0.00 | 0.00 | 38 | 1014.9 |
| 20260905163600 | 93 | 83 | 2.0 | 5.0 | 0.00 | 0.00 | 0.00 | 38 | 1014.9 |
| 20260905163109 | 93 | 93 | 2.0 | 5.0 | 0.00 | 0.00 | 0.00 | 39 | 1014.9 |
| 20260905162601 | 92 | 108 | 1.0 | 3.0 | 0.00 | 0.00 | 0.00 | 39 | 1014.9 |
| 20260905162059 | 92 | 132 | 1.0 | 3.0 | 0.00 | 0.00 | 0.00 | 39 | 1014.9 |
| 20260905161605 | 91 | 94 | 1.0 | 3.0 | 0.00 | 0.00 | 0.00 | 40 | 1015.0 |
| 20260905161101 | 90 | 111 | 1.0 | 3.0 | 0.00 | 0.00 | 0.00 | 41 | 1014.9 |
| 20260905160559 | 90 | 105 | 0.0 | 3.0 | 0.00 | 0.00 | 0.00 | 40 | 1014.9 |
| 20260905160107 | 90 | 63 | 0.0 | 4.0 | 0.00 | 0.00 | 0.00 | 40 | 1014.8 |
| 20260905155600 | 90 | 337 | 1.0 | 4.0 | 0.00 | 0.00 | 0.00 | 40 | 1014.7 |
| 20260905155105 | 89 | 23 | 1.0 | 4.0 | 0.00 | 0.00 | 0.00 | 42 | 1014.7 |
| 20260905154606 | 88 | 90 | 2.0 | 4.0 | 0.00 | 0.00 | 0.00 | 43 | 1014.7 |
| 20260905154100 | 88 | 72 | 1.0 | 3.0 | 0.00 | 0.00 | 0.00 | 43 | 1014.7 |
| 20260905153604 | 87 | 57 | 2.0 | 4.0 | 0.00 | 0.00 | 0.00 | 44 | 1014.7 |
| 20260905153104 | 86 | 69 | 2.0 | 4.0 | 0.00 | 0.00 | 0.00 | 45 | 1014.6 |
| 20260905152602 | 86 | 70 | 2.0 | 3.0 | 0.00 | 0.00 | 0.00 | 45 | 1014.7 |
| 20260905152059 | 86 | 0 | 1.0 | 5.0 | 0.00 | 0.00 | 0.00 | 45 | 1014.7 |
| 20260905151602 | 86 | 79 | 0.0 | 5.0 | 0.00 | 0.00 | 0.00 | 45 | 1014.6 |
| 20260905151100 | 87 | 66 | 2.0 | 5.0 | 0.00 | 0.00 | 0.00 | 44 | 1014.6 |
| 20260905150603 | 87 | 76 | 1.0 | 4.0 | 0.00 | 0.00 | 0.00 | 44 | 1014.6 |
| 20260905145600 | 86 | 58 | 2.0 | 4.0 | 0.00 | 0.00 | 0.00 | 44 | 1014.6 |
| 20260905145059 | 86 | 53 | 1.0 | 2.0 | 0.00 | 0.00 | 0.00 | 45 | 1014.5 |
| 20260905144609 | 85 | 77 | 1.0 | 2.0 | 0.00 | 0.00 | 0.00 | 46 | 1014.4 |
| 20260905144100 | 85 | 79 | 0.0 | 2.0 | 0.00 | 0.00 | 0.00 | 47 | 1014.5 |
| 20260905143559 | 85 | 79 | 0.0 | 2.0 | 0.00 | 0.00 | 0.00 | 47 | 1014.4 |
| 20260905143104 | 85 | 96 | 1.0 | 2.0 | 0.00 | 0.00 | 0.00 | 47 | 1014.5 |
| 20260905142600 | 85 | 87 | 0.0 | 2.0 | 0.00 | 0.00 | 0.00 | 47 | 1014.3 |
| 20260905142100 | 84 | 0 | 0.0 | 3.0 | 0.00 | 0.00 | 0.00 | 48 | 1014.2 |
| 20260905141605 | 83 | 328 | 1.0 | 3.0 | 0.00 | 0.00 | 0.00 | 49 | 1014.2 |
| 20260905141103 | 83 | 17 | 0.0 | 2.0 | 0.00 | 0.00 | 0.00 | 49 | 1014.1 |
| 20260905140600 | 83 | 94 | 0.0 | 2.0 | 0.00 | 0.00 | 0.00 | 48 | 1014.1 |
| 20260905140113 | 83 | 0 | 0.0 | 2.0 | 0.00 | 0.00 | 0.00 | 48 | 1014.1 |
| 20260905135559 | 83 | 332 | 0.0 | 2.0 | 0.00 | 0.00 | 0.00 | 48 | 1014.0 |
| 20260905135100 | 83 | 359 | 0.0 | 1.0 | 0.00 | 0.00 | 0.00 | 48 | 1013.9 |
| 20260905134606 | 82 | 342 | 0.0 | 2.0 | 0.00 | 0.00 | 0.00 | 48 | 1013.9 |
| 20260905134100 | 81 | 0 | 0.0 | 3.0 | 0.00 | 0.00 | 0.00 | 49 | 1013.8 |
| 20260905133600 | 81 | 138 | 0.0 | 3.0 | 0.00 | 0.00 | 0.00 | 50 | 1013.7 |
| 20260905133105 | 80 | 59 | 1.0 | 2.0 | 0.00 | 0.00 | 0.00 | 51 | 1013.7 |
| 20260905132600 | 78 | 92 | 0.0 | 0.0 | 0.00 | 0.00 | 0.00 | 53 | 1013.6 |
| 20260905132100 | 78 | 0 | 0.0 | 0.0 | 0.00 | 0.00 | 0.00 | 53 | 1013.5 |
| 20260905131602 | 78 | 0 | 0.0 | 0.0 | 0.00 | 0.00 | 0.00 | 53 | 1013.5 |
| 20260905131059 | 78 | 0 | 0.0 | 0.0 | 0.00 | 0.00 | 0.00 | 53 | 1013.5 |
| 20260905130600 | 78 | 0 | 0.0 | 2.0 | 0.00 | 0.00 | 0.00 | 53 | 1013.4 |
| 20260905125559 | 78 | 72 | 0.0 | 0.0 | 0.00 | 0.00 | 0.00 | 55 | 1013.3 |
| 20260905125059 | 78 | 0 | 0.0 | 0.0 | 0.00 | 0.00 | 0.00 | 54 | 1013.2 |
| 20260905124603 | 78 | 0 | 0.0 | 0.0 | 0.00 | 0.00 | 0.00 | 54 | 1013.1 |
| 20260905124101 | 79 | 0 | 0.0 | 0.0 | 0.00 | 0.00 | 0.00 | 53 | 1013.1 |
| 20260905123600 | 79 | 0 | 0.0 | 0.0 | 0.00 | 0.00 | 0.00 | 52 | 1013.2 |
| 20260905123106 | 79 | 0 | 0.0 | 0.0 | 0.00 | 0.00 | 0.00 | 52 | 1013.2 |
| 20260905122601 | 80 | 0 | 0.0 | 0.0 | 0.00 | 0.00 | 0.00 | 52 | 1013.1 |
| 20260905122103 | 80 | 0 | 0.0 | 0.0 | 0.00 | 0.00 | 0.00 | 52 | 1013.0 |
| 20260905121605 | 80 | 309 | 0.0 | 0.0 | 0.00 | 0.00 | 0.00 | 52 | 1012.9 |
| 20260905121103 | 80 | 0 | 0.0 | 0.0 | 0.00 | 0.00 | 0.00 | 51 | 1012.9 |
| 20260905120559 | 80 | 0 | 0.0 | 0.0 | 0.00 | 0.00 | 0.00 | 51 | 1012.9 |
| 20260905120112 | 80 | 0 | 0.0 | 0.0 | 0.00 | 0.00 | 0.00 | 51 | 1013.0 |
| 20260905115600 | 81 | 0 | 0.0 | 0.0 | 0.00 | 0.00 | 0.00 | 50 | 1013.0 |
| 20260905115100 | 81 | 0 | 0.0 | 0.0 | 0.00 | 0.00 | 0.00 | 51 | 1012.9 |
| 20260905114611 | 80 | 0 | 0.0 | 0.0 | 0.00 | 0.00 | 0.00 | 51 | 1012.9 |
| 20260905114100 | 80 | 309 | 0.0 | 0.0 | 0.00 | 0.00 | 0.00 | 51 | 1012.9 |
| 20260905113600 | 80 | 0 | 0.0 | 0.0 | 0.00 | 0.00 | 0.00 | 51 | 1012.8 |
| 20260905113102 | 80 | 0 | 0.0 | 1.0 | 0.00 | 0.00 | 0.00 | 50 | 1012.8 |
| 20260905112600 | 81 | 0 | 0.0 | 1.0 | 0.00 | 0.00 | 0.00 | 50 | 1012.8 |
| 20260905112059 | 80 | 309 | 0.0 | 1.0 | 0.00 | 0.00 | 0.00 | 50 | 1012.7 |
| 20260905111655 | 81 | 0 | 0.0 | 0.0 | 0.00 | 0.00 | 0.00 | 50 | 1012.6 |
| 20260905111100 | 81 | 0 | 0.0 | 1.0 | 0.00 | 0.00 | 0.00 | 49 | 1012.7 |
| 20260905110559 | 81 | 0 | 0.0 | 1.0 | 0.00 | 0.00 | 0.00 | 49 | 1012.8 |
| 20260905105559 | 82 | 0 | 0.0 | 1.0 | 0.00 | 0.00 | 0.00 | 49 | 1012.7 |
| 20260905105101 | 82 | 0 | 0.0 | 2.0 | 0.00 | 0.00 | 0.00 | 48 | 1012.6 |
| 20260905104600 | 82 | 0 | 0.0 | 2.0 | 0.00 | 0.00 | 0.00 | 48 | 1012.5 |
| 20260905104100 | 82 | 0 | 0.0 | 2.0 | 0.00 | 0.00 | 0.00 | 47 | 1012.6 |
| 20260905103600 | 83 | 56 | 0.0 | 2.0 | 0.00 | 0.00 | 0.00 | 47 | 1012.5 |
| 20260905103109 | 83 | 0 | 0.0 | 2.0 | 0.00 | 0.00 | 0.00 | 46 | 1012.5 |
| 20260905102559 | 84 | 322 | 1.0 | 2.0 | 0.00 | 0.00 | 0.00 | 46 | 1012.5 |
| 20260905102059 | 84 | 298 | 1.0 | 2.0 | 0.00 | 0.00 | 0.00 | 46 | 1012.4 |
| 20260905101609 | 84 | 287 | 0.0 | 3.0 | 0.00 | 0.00 | 0.00 | 46 | 1012.4 |
| 20260905101059 | 84 | 329 | 1.0 | 5.0 | 0.00 | 0.00 | 0.00 | 46 | 1012.4 |
| 20260905100559 | 84 | 326 | 2.0 | 5.0 | 0.00 | 0.00 | 0.00 | 45 | 1012.4 |
| 20260905095559 | 84 | 318 | 2.0 | 5.0 | 0.00 | 0.00 | 0.00 | 45 | 1012.4 |
| 20260905095059 | 84 | 321 | 2.0 | 4.0 | 0.00 | 0.00 | 0.00 | 45 | 1012.3 |
| 20260905094605 | 84 | 342 | 2.0 | 4.0 | 0.00 | 0.00 | 0.00 | 45 | 1012.3 |
| 20260905094059 | 84 | 343 | 2.0 | 3.0 | 0.00 | 0.00 | 0.00 | 45 | 1012.4 |
| 20260905093600 | 84 | 315 | 1.0 | 3.0 | 0.00 | 0.00 | 0.00 | 45 | 1012.4 |
| 20260905093122 | 84 | 324 | 0.0 | 2.0 | 0.00 | 0.00 | 0.00 | 45 | 1012.5 |
| 20260905092559 | 84 | 325 | 0.0 | 2.0 | 0.00 | 0.00 | 0.00 | 45 | 1012.5 |
| 20260905092059 | 84 | 322 | 1.0 | 4.0 | 0.00 | 0.00 | 0.00 | 45 | 1012.5 |
| 20260905091604 | 85 | 326 | 1.0 | 4.0 | 0.00 | 0.00 | 0.00 | 45 | 1012.5 |
| 20260905091059 | 85 | 334 | 2.0 | 4.0 | 0.00 | 0.00 | 0.00 | 44 | 1012.5 |
| 20260905090559 | 85 | 322 | 2.0 | 5.0 | 0.00 | 0.00 | 0.00 | 44 | 1012.5 |
| 20260905090104 | 85 | 326 | 3.0 | 5.0 | 0.00 | 0.00 | 0.00 | 44 | 1012.5 |
| 20260905085600 | 85 | 331 | 2.0 | 5.0 | 0.00 | 0.00 | 0.00 | 44 | 1012.5 |
| 20260905085100 | 85 | 338 | 2.0 | 5.0 | 0.00 | 0.00 | 0.00 | 44 | 1012.6 |
| 20260905084605 | 85 | 339 | 2.0 | 4.0 | 0.00 | 0.00 | 0.00 | 44 | 1012.6 |
| 20260905084137 | 85 | 353 | 2.0 | 4.0 | 0.00 | 0.00 | 0.00 | 44 | 1012.6 |
| 20260905083600 | 85 | 321 | 2.0 | 5.0 | 0.00 | 0.00 | 0.00 | 44 | 1012.7 |
| 20260905083102 | 86 | 329 | 2.0 | 5.0 | 0.00 | 0.00 | 0.00 | 43 | 1012.6 |
| 20260905082559 | 86 | 333 | 2.0 | 4.0 | 0.00 | 0.00 | 0.00 | 43 | 1012.7 |
| 20260905082059 | 86 | 340 | 2.0 | 3.0 | 0.00 | 0.00 | 0.00 | 42 | 1012.7 |
| 20260905081603 | 86 | 335 | 1.0 | 3.0 | 0.00 | 0.00 | 0.00 | 43 | 1012.7 |
| 20260905081100 | 85 | 0 | 0.0 | 1.0 | 0.00 | 0.00 | 0.00 | 43 | 1012.7 |
| 20260905080603 | 85 | 0 | 0.0 | 2.0 | 0.00 | 0.00 | 0.00 | 43 | 1012.7 |
| 20260905075600 | 86 | 103 | 0.0 | 2.0 | 0.00 | 0.00 | 0.00 | 42 | 1012.8 |
| 20260905075058 | 87 | 0 | 0.0 | 1.0 | 0.00 | 0.00 | 0.00 | 41 | 1012.7 |
| 20260905074611 | 87 | 289 | 0.0 | 1.0 | 0.00 | 0.00 | 0.00 | 41 | 1012.7 |
| 20260905074100 | 87 | 271 | 0.0 | 1.0 | 0.00 | 0.00 | 0.00 | 41 | 1012.6 |
| 20260905073558 | 88 | 0 | 0.0 | 2.0 | 0.00 | 0.00 | 0.00 | 41 | 1012.5 |
| 20260905073104 | 88 | 266 | 1.0 | 6.0 | 0.00 | 0.00 | 0.00 | 41 | 1012.5 |
| 20260905072559 | 89 | 271 | 2.0 | 7.0 | 0.00 | 0.00 | 0.00 | 40 | 1012.4 |
| 20260905072101 | 89 | 288 | 2.0 | 7.0 | 0.00 | 0.00 | 0.00 | 39 | 1012.4 |
| 20260905071602 | 88 | 254 | 3.0 | 6.0 | 0.00 | 0.00 | 0.00 | 40 | 1012.4 |
| 20260905071057 | 87 | 252 | 1.0 | 2.0 | 0.00 | 0.00 | 0.00 | 40 | 1012.4 |
| 20260905070602 | 87 | 0 | 0.0 | 0.0 | 0.00 | 0.00 | 0.00 | 41 | 1012.4 |
| 20260905065558 | 87 | 0 | 0.0 | 0.0 | 0.00 | 0.00 | 0.00 | 41 | 1012.5 |
| 20260905065057 | 87 | 0 | 0.0 | 1.0 | 0.00 | 0.00 | 0.00 | 40 | 1012.4 |
| 20260905064631 | 88 | 272 | 0.0 | 1.0 | 0.00 | 0.00 | 0.00 | 40 | 1012.4 |
| 20260905064058 | 88 | 0 | 0.0 | 2.0 | 0.00 | 0.00 | 0.00 | 40 | 1012.4 |
| 20260905063558 | 87 | 274 | 1.0 | 3.0 | 0.00 | 0.00 | 0.00 | 40 | 1012.4 |
| 20260905063103 | 87 | 262 | 0.0 | 3.0 | 0.00 | 0.00 | 0.00 | 40 | 1012.3 |
| 20260905062559 | 87 | 236 | 0.0 | 3.0 | 0.00 | 0.00 | 0.00 | 41 | 1012.2 |
| 20260905062058 | 86 | 0 | 0.0 | 0.0 | 0.00 | 0.00 | 0.00 | 42 | 1012.2 |
| 20260905061601 | 86 | 0 | 0.0 | 0.0 | 0.00 | 0.00 | 0.00 | 42 | 1012.2 |
| 20260905061058 | 87 | 0 | 0.0 | 0.0 | 0.00 | 0.00 | 0.00 | 41 | 1012.2 |
| 20260905060601 | 87 | 0 | 0.0 | 0.0 | 0.00 | 0.00 | 0.00 | 41 | 1012.2 |
| 20260905060108 | 87 | 0 | 0.0 | 0.0 | 0.00 | 0.00 | 0.00 | 40 | 1012.1 |
| 20260905055603 | 88 | 0 | 0.0 | 0.0 | 0.00 | 0.00 | 0.00 | 41 | 1012.2 |
| 20260905055058 | 88 | 0 | 0.0 | 0.0 | 0.00 | 0.00 | 0.00 | 40 | 1012.1 |
| 20260905054601 | 89 | 0 | 0.0 | 0.0 | 0.00 | 0.00 | 0.00 | 40 | 1012.1 |
| 20260905054057 | 89 | 0 | 0.0 | 0.0 | 0.00 | 0.00 | 0.00 | 39 | 1012.1 |
| 20260905053558 | 89 | 0 | 0.0 | 3.0 | 0.00 | 0.00 | 0.00 | 39 | 1012.0 |
| 20260905053104 | 90 | 0 | 0.0 | 3.0 | 0.00 | 0.00 | 0.00 | 38 | 1012.0 |
| 20260905052558 | 90 | 215 | 1.0 | 3.0 | 0.00 | 0.00 | 0.00 | 38 | 1012.0 |
| 20260905052059 | 90 | 226 | 1.0 | 2.0 | 0.00 | 0.00 | 0.00 | 38 | 1011.9 |
| 20260905051601 | 90 | 258 | 1.0 | 2.0 | 0.00 | 0.00 | 0.00 | 38 | 1011.9 |
| 20260905051058 | 90 | 213 | 0.0 | 1.0 | 0.00 | 0.00 | 0.00 | 37 | 1011.9 |
| 20260905050558 | 90 | 205 | 0.0 | 3.0 | 0.00 | 0.00 | 0.00 | 37 | 1011.9 |
| 20260905050105 | 91 | 225 | 1.0 | 3.0 | 0.00 | 0.00 | 0.00 | 37 | 1011.9 |
| 20260905045558 | 91 | 162 | 1.0 | 2.0 | 0.00 | 0.00 | 0.00 | 36 | 1011.9 |
| 20260905045058 | 91 | 210 | 0.0 | 3.0 | 0.00 | 0.00 | 0.00 | 36 | 1011.8 |
| 20260905044611 | 91 | 187 | 1.0 | 3.0 | 0.00 | 0.00 | 0.00 | 36 | 1011.8 |
| 20260905044100 | 91 | 184 | 1.0 | 3.0 | 0.00 | 0.00 | 0.00 | 36 | 1011.8 |
| 20260905043605 | 91 | 231 | 1.0 | 5.0 | 0.00 | 0.00 | 0.00 | 35 | 1011.7 |
| 20260905043108 | 92 | 234 | 2.0 | 5.0 | 0.00 | 0.00 | 0.00 | 35 | 1011.7 |
| 20260905042603 | 92 | 194 | 1.0 | 5.0 | 0.00 | 0.00 | 0.00 | 35 | 1011.7 |
| 20260905042101 | 92 | 211 | 2.0 | 5.0 | 0.00 | 0.00 | 0.00 | 34 | 1011.6 |
| 20260905041603 | 92 | 176 | 2.0 | 5.0 | 0.00 | 0.00 | 0.00 | 34 | 1011.6 |
| 20260905041059 | 93 | 230 | 2.0 | 5.0 | 0.00 | 0.00 | 0.00 | 34 | 1011.6 |
| 20260905040559 | 93 | 203 | 2.0 | 5.0 | 0.00 | 0.00 | 0.00 | 34 | 1011.6 |
| 20260905040105 | 93 | 193 | 2.0 | 4.0 | 0.00 | 0.00 | 0.00 | 34 | 1011.4 |
| 20260905035559 | 93 | 219 | 2.0 | 4.0 | 0.00 | 0.00 | 0.00 | 34 | 1011.5 |
| 20260905035058 | 93 | 264 | 2.0 | 5.0 | 0.00 | 0.00 | 0.00 | 34 | 1011.4 |
| 20260905034609 | 93 | 254 | 2.0 | 5.0 | 0.00 | 0.00 | 0.00 | 33 | 1011.4 |
| 20260905034101 | 94 | 177 | 2.0 | 6.0 | 0.00 | 0.00 | 0.00 | 33 | 1011.3 |
| 20260905033559 | 94 | 273 | 3.0 | 6.0 | 0.00 | 0.00 | 0.00 | 33 | 1011.3 |
| 20260905033101 | 94 | 143 | 3.0 | 7.0 | 0.00 | 0.00 | 0.00 | 32 | 1011.3 |
| 20260905032559 | 94 | 186 | 3.0 | 7.0 | 0.00 | 0.00 | 0.00 | 32 | 1011.3 |
| 20260905032059 | 94 | 182 | 3.0 | 8.0 | 0.00 | 0.00 | 0.00 | 32 | 1011.1 |
| 20260905031605 | 94 | 185 | 3.0 | 9.0 | 0.00 | 0.00 | 0.00 | 32 | 1011.1 |
| 20260905031058 | 95 | 259 | 3.0 | 9.0 | 0.00 | 0.00 | 0.00 | 32 | 1010.9 |
| 20260905030559 | 95 | 184 | 4.0 | 7.0 | 0.00 | 0.00 | 0.00 | 32 | 1010.9 |
| 20260905030118 | 95 | 196 | 3.0 | 7.0 | 0.00 | 0.00 | 0.00 | 33 | 1010.7 |
| 20260905025558 | 95 | 220 | 4.0 | 8.0 | 0.00 | 0.00 | 0.00 | 32 | 1010.7 |
| 20260905025058 | 95 | 153 | 4.0 | 8.0 | 0.00 | 0.00 | 0.00 | 32 | 1010.6 |
| 20260905024605 | 95 | 156 | 4.0 | 8.0 | 0.00 | 0.00 | 0.00 | 33 | 1010.6 |
| 20260905024058 | 96 | 187 | 4.0 | 10.0 | 0.00 | 0.00 | 0.00 | 33 | 1010.3 |
| 20260905023602 | 96 | 191 | 5.0 | 10.0 | 0.00 | 0.00 | 0.00 | 33 | 1010.4 |
| 20260905023104 | 96 | 200 | 5.0 | 9.0 | 0.00 | 0.00 | 0.00 | 33 | 1010.3 |
| 20260905022601 | 96 | 236 | 5.0 | 9.0 | 0.00 | 0.00 | 0.00 | 33 | 1010.3 |
| 20260905022059 | 96 | 216 | 4.0 | 9.0 | 0.00 | 0.00 | 0.00 | 33 | 1010.2 |
| 20260905021613 | 96 | 203 | 3.0 | 9.0 | 0.00 | 0.00 | 0.00 | 33 | 1010.2 |
| 20260905021059 | 96 | 236 | 4.0 | 9.0 | 0.00 | 0.00 | 0.00 | 32 | 1010.2 |
| 20260905020559 | 97 | 128 | 4.0 | 9.0 | 0.00 | 0.00 | 0.00 | 32 | 1010.1 |
| 20260905020108 | 97 | 240 | 4.0 | 8.0 | 0.00 | 0.00 | 0.00 | 32 | 1010.0 |
| 20260905015559 | 97 | 156 | 4.0 | 10.0 | 0.00 | 0.00 | 0.00 | 32 | 1010.0 |
| 20260905015059 | 97 | 172 | 3.0 | 10.0 | 0.00 | 0.00 | 0.00 | 32 | 1010.0 |
| 20260905014603 | 97 | 269 | 4.0 | 11.0 | 0.00 | 0.00 | 0.00 | 31 | 1010.0 |
| 20260905014059 | 98 | 172 | 6.0 | 11.0 | 0.00 | 0.00 | 0.00 | 31 | 1010.0 |
| 20260905013600 | 98 | 252 | 6.0 | 11.0 | 0.00 | 0.00 | 0.00 | 31 | 1010.0 |
| 20260905013105 | 98 | 253 | 5.0 | 11.0 | 0.00 | 0.00 | 0.00 | 31 | 1009.9 |
| 20260905012602 | 99 | 167 | 4.0 | 9.0 | 0.00 | 0.00 | 0.00 | 30 | 1009.9 |
| 20260905012103 | 99 | 215 | 2.0 | 6.0 | 0.00 | 0.00 | 0.00 | 30 | 1009.9 |
| 20260905011608 | 99 | 266 | 3.0 | 7.0 | 0.00 | 0.00 | 0.00 | 30 | 1009.8 |
| 20260905011058 | 98 | 147 | 4.0 | 11.0 | 0.00 | 0.00 | 0.00 | 30 | 1009.8 |
| 20260905010601 | 99 | 200 | 5.0 | 11.0 | 0.00 | 0.00 | 0.00 | 30 | 1009.8 |
| 20260905010103 | 99 | 188 | 4.0 | 12.0 | 0.00 | 0.00 | 0.00 | 30 | 1009.8 |
| 20260905005558 | 99 | 208 | 6.0 | 14.0 | 0.00 | 0.00 | 0.00 | 30 | 1009.8 |
| 20260905005059 | 99 | 185 | 6.0 | 14.0 | 0.00 | 0.00 | 0.00 | 30 | 1009.8 |
| 20260905004608 | 100 | 186 | 5.0 | 12.0 | 0.00 | 0.00 | 0.00 | 30 | 1009.9 |
| 20260905004101 | 100 | 127 | 5.0 | 12.0 | 0.00 | 0.00 | 0.00 | 29 | 1009.8 |
| 20260905003559 | 100 | 244 | 5.0 | 9.0 | 0.00 | 0.00 | 0.00 | 31 | 1009.8 |
| 20260905003108 | 100 | 256 | 4.0 | 10.0 | 0.00 | 0.00 | 0.00 | 30 | 1009.9 |
| 20260905002558 | 99 | 229 | 5.0 | 13.0 | 0.00 | 0.00 | 0.00 | 30 | 1009.9 |
| 20260905002059 | 100 | 226 | 5.0 | 13.0 | 0.00 | 0.00 | 0.00 | 30 | 1009.9 |
| 20260905001611 | 101 | 295 | 6.0 | 12.0 | 0.00 | 0.00 | 0.00 | 30 | 1009.9 |
| 20260905001058 | 100 | 224 | 5.0 | 11.0 | 0.00 | 0.00 | 0.00 | 31 | 1009.9 |
| 20260905000558 | 100 | 276 | 5.0 | 12.0 | 0.00 | 0.00 | 0.00 | 31 | 1010.0 |
| 20260905000107 | 100 | 197 | 5.0 | 12.0 | 0.00 | 0.00 | 0.00 | 31 | 1010.0 |
| 20260904235558 | 100 | 143 | 6.0 | 10.0 | 0.00 | 0.00 | 0.00 | 30 | 1010.0 |
| 20260904235102 | 100 | 212 | 4.0 | 8.0 | 0.00 | 0.00 | 0.00 | 30 | 1010.0 |
| 20260904234608 | 100 | 205 | 4.0 | 13.0 | 0.00 | 0.00 | 0.00 | 29 | 1010.0 |
| 20260904234058 | 100 | 217 | 7.0 | 13.0 | 0.00 | 0.00 | 0.00 | 29 | 1010.1 |
| 20260904233558 | 100 | 196 | 6.0 | 13.0 | 0.00 | 0.00 | 0.00 | 29 | 1010.1 |
| 20260904233103 | 101 | 245 | 6.0 | 10.0 | 0.00 | 0.00 | 0.00 | 29 | 1010.0 |
| 20260904232601 | 100 | 323 | 5.0 | 10.0 | 0.00 | 0.00 | 0.00 | 29 | 1010.2 |
| 20260904232100 | 101 | 221 | 5.0 | 10.0 | 0.00 | 0.00 | 0.00 | 29 | 1010.1 |
| 20260904231604 | 102 | 278 | 5.0 | 10.0 | 0.00 | 0.00 | 0.00 | 29 | 1010.1 |
| 20260904231101 | 102 | 289 | 5.0 | 10.0 | 0.00 | 0.00 | 0.00 | 28 | 1010.2 |
| 20260904230604 | 102 | 226 | 4.0 | 14.0 | 0.00 | 0.00 | 0.00 | 29 | 1010.2 |
| 20260904225601 | 101 | 167 | 4.0 | 8.0 | 0.00 | 0.00 | 0.00 | 29 | 1010.4 |
| 20260904225058 | 101 | 183 | 3.0 | 16.0 | 0.00 | 0.00 | 0.00 | 29 | 1010.6 |
| 20260904224602 | 101 | 238 | 5.0 | 16.0 | 0.00 | 0.00 | 0.00 | 29 | 1010.6 |
| 20260904224058 | 100 | 205 | 7.0 | 16.0 | 0.00 | 0.00 | 0.00 | 30 | 1010.6 |
| 20260904223559 | 99 | 338 | 1.0 | 5.0 | 0.00 | 0.00 | 0.00 | 33 | 1010.5 |
| 20260904223104 | 99 | 118 | 2.0 | 8.0 | 0.00 | 0.00 | 0.00 | 34 | 1010.7 |
| 20260904222558 | 99 | 133 | 3.0 | 11.0 | 0.00 | 0.00 | 0.00 | 34 | 1010.8 |
| 20260904222058 | 99 | 127 | 5.0 | 11.0 | 0.00 | 0.00 | 0.00 | 34 | 1010.9 |
| 20260904221605 | 99 | 120 | 6.0 | 11.0 | 0.00 | 0.00 | 0.00 | 33 | 1010.9 |
| 20260904221101 | 100 | 106 | 3.0 | 9.0 | 0.00 | 0.00 | 0.00 | 33 | 1011.0 |
| 20260904220600 | 101 | 130 | 5.0 | 10.0 | 0.00 | 0.00 | 0.00 | 32 | 1011.0 |
| 20260904220112 | 101 | 233 | 4.0 | 10.0 | 0.00 | 0.00 | 0.00 | 32 | 1011.1 |
| 20260904215603 | 102 | 136 | 4.0 | 10.0 | 0.00 | 0.00 | 0.00 | 31 | 1011.2 |
| 20260904215104 | 102 | 269 | 6.0 | 10.0 | 0.00 | 0.00 | 0.00 | 32 | 1011.2 |
| 20260904214605 | 102 | 271 | 3.0 | 7.0 | 0.00 | 0.00 | 0.00 | 33 | 1011.3 |
| 20260904214100 | 101 | 243 | 4.0 | 9.0 | 0.00 | 0.00 | 0.00 | 34 | 1011.3 |
| 20260904213600 | 101 | 109 | 2.0 | 11.0 | 0.00 | 0.00 | 0.00 | 34 | 1011.4 |
| 20260904213106 | 101 | 117 | 7.0 | 11.0 | 0.00 | 0.00 | 0.00 | 33 | 1011.5 |
| 20260904212601 | 100 | 108 | 5.0 | 14.0 | 0.00 | 0.00 | 0.00 | 36 | 1011.5 |
| 20260904212059 | 100 | 257 | 6.0 | 14.0 | 0.00 | 0.00 | 0.00 | 35 | 1011.6 |
| 20260904211608 | 100 | 163 | 5.0 | 11.0 | 0.00 | 0.00 | 0.00 | 35 | 1011.6 |
| 20260904211059 | 102 | 143 | 4.0 | 11.0 | 0.00 | 0.00 | 0.00 | 34 | 1011.8 |
| 20260904210600 | 101 | 243 | 5.0 | 13.0 | 0.00 | 0.00 | 0.00 | 34 | 1011.8 |
| 20260904210111 | 101 | 183 | 7.0 | 13.0 | 0.00 | 0.00 | 0.00 | 34 | 1011.9 |
| 20260904205600 | 99 | 129 | 7.0 | 13.0 | 0.00 | 0.00 | 0.00 | 37 | 1011.8 |
| 20260904205100 | 100 | 146 | 4.0 | 12.0 | 0.00 | 0.00 | 0.00 | 36 | 1011.9 |
| 20260904204606 | 100 | 191 | 5.0 | 10.0 | 0.00 | 0.00 | 0.00 | 36 | 1012.0 |
| 20260904204100 | 100 | 169 | 5.0 | 11.0 | 0.00 | 0.00 | 0.00 | 35 | 1012.0 |
| 20260904203600 | 100 | 168 | 5.0 | 11.0 | 0.00 | 0.00 | 0.00 | 37 | 1012.1 |
| 20260904203106 | 101 | 105 | 5.0 | 12.0 | 0.00 | 0.00 | 0.00 | 36 | 1012.1 |
| 20260904202619 | 100 | 236 | 5.0 | 12.0 | 0.00 | 0.00 | 0.00 | 35 | 1012.2 |
| 20260904202058 | 100 | 168 | 4.0 | 9.0 | 0.00 | 0.00 | 0.00 | 37 | 1012.3 |
| 20260904201606 | 100 | 108 | 3.0 | 9.0 | 0.00 | 0.00 | 0.00 | 38 | 1012.4 |
| 20260904201058 | 100 | 94 | 1.0 | 14.0 | 0.00 | 0.00 | 0.00 | 38 | 1012.5 |
| 20260904200601 | 100 | 147 | 4.0 | 14.0 | 0.00 | 0.00 | 0.00 | 38 | 1012.7 |
| 20260904200124 | 100 | 129 | 4.0 | 10.0 | 0.00 | 0.00 | 0.00 | 38 | 1012.6 |
| 20260904195559 | 100 | 215 | 3.0 | 10.0 | 0.00 | 0.00 | 0.00 | 38 | 1012.7 |
| 20260904195104 | 100 | 187 | 6.0 | 13.0 | 0.00 | 0.00 | 0.00 | 38 | 1012.6 |
| 20260904194635 | 99 | 193 | 6.0 | 13.0 | 0.00 | 0.00 | 0.00 | 38 | 1012.7 |
| 20260904194059 | 99 | 143 | 7.0 | 13.0 | 0.00 | 0.00 | 0.00 | 38 | 1012.7 |
| 20260904193558 | 98 | 90 | 2.0 | 8.0 | 0.00 | 0.00 | 0.00 | 40 | 1012.7 |
| 20260904193105 | 97 | 10 | 3.0 | 9.0 | 0.00 | 0.00 | 0.00 | 40 | 1012.9 |
| 20260904192559 | 98 | 144 | 4.0 | 9.0 | 0.00 | 0.00 | 0.00 | 41 | 1013.0 |
| 20260904192101 | 97 | 146 | 3.0 | 8.0 | 0.00 | 0.00 | 0.00 | 41 | 1012.9 |
| 20260904191622 | 98 | 124 | 3.0 | 7.0 | 0.00 | 0.00 | 0.00 | 41 | 1013.1 |
| 20260904191059 | 98 | 127 | 2.0 | 15.0 | 0.00 | 0.00 | 0.00 | 41 | 1013.2 |
| 20260904190559 | 96 | 127 | 7.0 | 15.0 | 0.00 | 0.00 | 0.00 | 41 | 1013.3 |
| 20260904190101 | 97 | 91 | 6.0 | 11.0 | 0.00 | 0.00 | 0.00 | 40 | 1013.3 |
| 20260904185559 | 97 | 96 | 1.0 | 8.0 | 0.00 | 0.00 | 0.00 | 42 | 1013.3 |
| 20260904185059 | 96 | 90 | 4.0 | 8.0 | 0.00 | 0.00 | 0.00 | 42 | 1013.4 |
| 20260904184611 | 96 | 116 | 2.0 | 12.0 | 0.00 | 0.00 | 0.00 | 43 | 1013.5 |